{"data":{"norad_id":63839,"epoch":"2026-09-19T18:14:58.240320Z","epoch_age_seconds":213599,"freshness":"STALE","line1":"1 63839U 25093D   26262.76039630  .00012394  00000+0  45894-3 0  9991","line2":"2 63839  43.0037  61.8222 0001595 268.4954  91.5715 15.27594687 77654","mean_motion":15.27594687,"eccentricity":0.0001595,"inclination_deg":43.0037,"raan_deg":61.8222,"arg_perigee_deg":268.4954,"mean_anomaly_deg":91.5715,"bstar":0.00045894,"rev_number":7765,"period_min":94.265842389644,"perigee_km":481.91076606253,"apogee_km":484.09947039825,"semimajor_km":6861.1421182304,"source":"CELESTRAK","updated_at":"2026-09-21T09:00:35.110899Z"}}